SV1BYK-2 Athens GR current weather conditions

sailwx.info

Wind from 187

Air temperature 15.6° C
Dewpoint 7.3° C

Last reported at 2018-Apr-21 02:02 UTC.
Time now 2018-Apr-21 02:15 UTC

Location: N 38°01' E 023°42'.
View on Google Maps.

See reports from other nearby stations

  
Tides and Currents Weather Stations Pressure Air Temp Water Temp Dewpoint Dewpoint Depression Visibility Wind Speed Wind Dir Waves Ship Positions
date/time (UTC)wind fromknots sea level pressurealtimeterstation pressurevisibilityair tempwater tempwave heightnotes
2018-Apr-21 02:02 187 15.6
2018-Apr-21 01:53 232 0 gusting 6 15.6
2018-Apr-21 01:44 150 0 gusting 3 15.6
2018-Apr-21 01:35 192 1 gusting 3 15.6
2018-Apr-21 01:26 160 0 gusting 3 15.6
2018-Apr-21 01:17 158 16.1
2018-Apr-21 01:08 144 0 gusting 3 16.1
2018-Apr-21 00:59 166 0 gusting 3 16.1
2018-Apr-21 00:50 177 16.1
2018-Apr-21 00:41 163 1 gusting 3 16.1
2018-Apr-21 00:32 143 0 gusting 3 16.1
2018-Apr-21 00:23 163 1 gusting 4 16.1
2018-Apr-21 00:14 141 2 gusting 6 16.1
2018-Apr-21 00:05 179 0 gusting 2 16.1
2018-Apr-20 23:56 183 1 gusting 3 16.1
2018-Apr-20 23:47 158 16.7
2018-Apr-20 23:38 164 1 gusting 5 16.7
2018-Apr-20 23:29 178 0 gusting 6 16.7
2018-Apr-20 23:20 151 1 gusting 6 16.7
2018-Apr-20 23:11 140 1 gusting 5 16.7
2018-Apr-20 23:02 171 1 gusting 6 16.7
2018-Apr-20 22:53 163 1 gusting 5 16.7
2018-Apr-20 22:44 183 1 gusting 9 16.7
2018-Apr-20 22:35 163 2 gusting 6 16.7
2018-Apr-20 22:26 201 1 gusting 9 16.7
2018-Apr-20 22:17 119 5 gusting 9 16.7
2018-Apr-20 22:08 217 0 gusting 9 16.7
2018-Apr-20 21:59 188 1 gusting 6 17.2
2018-Apr-20 21:50 167 2 gusting 6 16.7
2018-Apr-20 21:41 165 1 gusting 5 16.7
2018-Apr-20 21:32 174 1 gusting 6 16.7
2018-Apr-20 21:23 146 1 gusting 5 16.7
2018-Apr-20 21:14 131 1 gusting 6 16.7
2018-Apr-20 21:05 117 2 gusting 7 16.7
2018-Apr-20 20:56 169 1 gusting 8 16.7
2018-Apr-20 20:47 224 1 gusting 9 16.7
2018-Apr-20 20:38 165 0 gusting 6 16.7
2018-Apr-20 20:29 126 1 gusting 6 17.2
2018-Apr-20 20:20 206 1 gusting 6 17.2
2018-Apr-20 20:11 270 2 gusting 6 17.2
2018-Apr-20 20:02 254 3 gusting 14 17.2
2018-Apr-20 19:53 229 0 gusting 12 17.2
2018-Apr-20 19:44 182 2 gusting 10 17.2
2018-Apr-20 19:35 156 3 gusting 12 17.2
2018-Apr-20 19:26 192 2 gusting 13 17.2
2018-Apr-20 19:17 160 6 gusting 13 17.2
2018-Apr-20 19:08 167 3 gusting 13 17.2
2018-Apr-20 18:59 173 1 gusting 9 17.2
2018-Apr-20 18:50 187 3 gusting 8 17.2
2018-Apr-20 18:41 174 5 gusting 12 17.2
2018-Apr-20 18:32 179 3 gusting 12 17.2
2018-Apr-20 18:23 173 2 gusting 9 17.2
2018-Apr-20 18:14 354 3 gusting 15 17.2
2018-Apr-20 18:05 295 3 gusting 12 17.2
2018-Apr-20 17:56 181 3 gusting 10 17.8
2018-Apr-20 17:47 162 4 gusting 9 17.8
2018-Apr-20 17:38 130 4 gusting 11 18.3
2018-Apr-20 17:29 193 3 gusting 9 18.3
2018-Apr-20 17:20 137 2 gusting 9 18.9
2018-Apr-20 17:11 147 5 gusting 13 18.9
2018-Apr-20 17:02 116 5 gusting 11 19.4
2018-Apr-20 16:53 153 5 gusting 14 19.4
2018-Apr-20 16:44 168 4 gusting 12 19.4
2018-Apr-20 16:35 151 4 gusting 11 20.0
2018-Apr-20 16:26 156 6 gusting 11 20.6
2018-Apr-20 16:17 146 6 gusting 11 21.1
2018-Apr-20 16:08 105 3 gusting 6 20.6
2018-Apr-20 15:59 181 3 gusting 13 21.7
2018-Apr-20 15:50 126 3 gusting 9 22.2
2018-Apr-20 15:41 111 4 gusting 9 22.8
2018-Apr-20 15:32 141 2 gusting 8 22.2
2018-Apr-20 15:23 104 3 gusting 13 22.2
2018-Apr-20 15:14 152 5 gusting 10 22.2
2018-Apr-20 15:05 145 3 gusting 10 21.1
2018-Apr-20 14:56 212 5 gusting 10 21.7
2018-Apr-20 14:47 148 4 gusting 11 23.3
2018-Apr-20 14:38 147 6 gusting 8 23.9
2018-Apr-20 14:29 145 4 gusting 12 23.3
2018-Apr-20 14:20 146 2 gusting 9 23.3
2018-Apr-20 14:11 162 3 gusting 7 23.9
2018-Apr-20 14:02 119 2 gusting 8 25.0
2018-Apr-20 13:53 150 6 gusting 10 25.0
2018-Apr-20 13:44 138 3 gusting 8 26.1
2018-Apr-20 13:35 196 1 gusting 6 26.1
2018-Apr-20 13:26 192 3 gusting 9 26.1
2018-Apr-20 13:17 184 3 gusting 6 26.7
2018-Apr-20 13:08 152 1 gusting 7 26.7
2018-Apr-20 12:59 190 3 gusting 11 27.2
2018-Apr-20 12:50 205 0 gusting 7 27.2
2018-Apr-20 12:41 246 3 gusting 14 27.2
2018-Apr-20 12:32 253 10 gusting 25 26.1
2018-Apr-20 12:23 228 11 gusting 25 26.7
2018-Apr-20 12:14 168 3 gusting 6 28.3
2018-Apr-20 12:05 144 3 gusting 10 27.8
2018-Apr-20 11:56 151 2 gusting 5 28.3
2018-Apr-20 11:47 260 0 gusting 8 26.7
2018-Apr-20 11:38 183 1 gusting 4 27.8
2018-Apr-20 11:29 244 26.7
2018-Apr-20 11:20 255 2 gusting 10 27.2
2018-Apr-20 11:11 270 1 gusting 9 27.2
2018-Apr-20 11:02 251 3 gusting 12 26.7
2018-Apr-20 10:53 233 3 gusting 16 26.7
2018-Apr-20 10:44 223 1 gusting 14 25.6
2018-Apr-20 10:35 255 7 gusting 13 25.6
2018-Apr-20 10:26 224 6 gusting 12 25.6
2018-Apr-20 10:17 262 2 gusting 11 25.6
2018-Apr-20 10:08 330 6 gusting 13 25.0
2018-Apr-20 09:59 262 6 gusting 17 25.0
2018-Apr-20 09:50 258 6 gusting 17 25.0
2018-Apr-20 09:41 261 9 gusting 15 25.0
2018-Apr-20 09:32 252 8 gusting 17 26.1
2018-Apr-20 09:23 274 5 gusting 18 26.7
2018-Apr-20 09:14 261 6 gusting 18 26.1
2018-Apr-20 09:05 264 11 gusting 18 26.1
2018-Apr-20 08:56 251 9 gusting 18 25.6
2018-Apr-20 08:47 273 7 gusting 16 26.7
2018-Apr-20 08:38 236 3 gusting 13 27.2
2018-Apr-20 08:29 260 1 gusting 13 26.7
2018-Apr-20 08:20 247 11 gusting 13 26.1
2018-Apr-20 08:11 233 8 gusting 13 26.7
2018-Apr-20 08:02 221 1 gusting 6 26.1
2018-Apr-20 07:53 091 1 gusting 6 26.7
2018-Apr-20 07:44 124 1 gusting 6 26.1
2018-Apr-20 07:35 230 2 gusting 9 25.6
2018-Apr-20 07:26 207 26.1
2018-Apr-20 07:17 278 1 gusting 7 26.7
2018-Apr-20 07:08 264 2 gusting 12 26.1
2018-Apr-20 06:59 235 5 gusting 12 24.4
2018-Apr-20 06:50 274 3 gusting 14 24.4
2018-Apr-20 06:41 267 10 gusting 14 23.3
2018-Apr-20 06:32 246 3 gusting 11 23.3
2018-Apr-20 06:23 217 6 gusting 9 23.9
2018-Apr-20 06:14 140 1 gusting 3 23.9
2018-Apr-20 06:05 133 23.3
2018-Apr-20 05:56 165 23.3
2018-Apr-20 05:47 096 0 gusting 3 22.8
2018-Apr-20 05:38 080 22.8
2018-Apr-20 05:29 058 22.2
2018-Apr-20 05:20 046 1 gusting 2 22.2
2018-Apr-20 05:11 21.1
2018-Apr-20 05:02 217 20.0
2018-Apr-20 04:53 122 19.4
2018-Apr-20 04:44 103 18.3
2018-Apr-20 04:35 090 18.3
2018-Apr-20 04:26 17.8
2018-Apr-20 04:17 206 17.8
2018-Apr-20 04:08 224 0 gusting 1 17.8
2018-Apr-20 03:59 037 17.8
2018-Apr-20 03:50 181 17.8
2018-Apr-20 03:41 237 17.8
2018-Apr-20 03:32 228 17.8
2018-Apr-20 03:23 203 17.2
2018-Apr-20 03:14 17.2
2018-Apr-20 03:05 17.2
2018-Apr-20 02:56 167 17.8
2018-Apr-20 02:47 154 17.8
2018-Apr-20 02:38 181 17.8
2018-Apr-20 02:29 135 18.3
2018-Apr-20 02:11 18.3
2018-Apr-20 01:44 087 18.3
2018-Apr-20 01:35 042 17.8
2018-Apr-20 01:26 040 18.3
2018-Apr-20 01:17 098 18.3
2018-Apr-20 01:08 17.8
2018-Apr-20 00:50 034 18.3
2018-Apr-20 00:41 031 17.8
2018-Apr-20 00:32 181 17.8
2018-Apr-20 00:23 128 17.8
2018-Apr-20 00:14 17.8
2018-Apr-20 00:05 225 17.8
2018-Apr-19 23:56 17.8
2018-Apr-19 23:47 135 18.3
2018-Apr-19 23:38 181 18.3
2018-Apr-19 23:29 203 18.9
2018-Apr-19 23:20 091 18.9
2018-Apr-19 23:11 196 18.9
2018-Apr-19 23:02 181 18.9
2018-Apr-19 22:53 181 18.9
2018-Apr-19 22:44 221 18.9
2018-Apr-19 22:35 234 18.9
2018-Apr-19 22:26 225 18.9
2018-Apr-19 22:17 18.9
2018-Apr-19 22:08 18.9
2018-Apr-19 21:59 18.9
2018-Apr-19 21:50 135 19.4
2018-Apr-19 21:41 029 19.4
2018-Apr-19 21:32 19.4
2018-Apr-19 21:23 181 19.4
2018-Apr-19 21:14 077 20.0
2018-Apr-19 21:05 214 20.0
2018-Apr-19 20:56 195 0 gusting 3 20.0
2018-Apr-19 20:47 179 1 gusting 6 20.0
2018-Apr-19 20:38 175 2 gusting 6 20.0
2018-Apr-19 20:29 179 4 gusting 6 20.6
2018-Apr-19 20:20 169 1 gusting 3 20.6
2018-Apr-19 20:11 181 20.6
2018-Apr-19 20:02 191 20.6
2018-Apr-19 19:53 235 20.6
2018-Apr-19 19:35 232 4 gusting 8 21.1
2018-Apr-19 19:26 224 4 gusting 10 21.1
2018-Apr-19 19:17 229 4 gusting 13 21.1
2018-Apr-19 19:08 236 6 gusting 11 21.1
2018-Apr-19 18:59 270 5 gusting 14 21.1
2018-Apr-19 18:50 254 8 gusting 13 21.1
2018-Apr-19 18:41 220 6 gusting 14 21.1
2018-Apr-19 18:32 231 3 gusting 12 21.1
2018-Apr-19 18:23 240 7 gusting 12 21.1
2018-Apr-19 18:14 223 6 gusting 14 21.7
2018-Apr-19 18:05 239 8 gusting 13 21.7
2018-Apr-19 17:56 236 4 gusting 7 21.7
2018-Apr-19 17:47 227 1 gusting 9 21.7
2018-Apr-19 17:38 233 6 gusting 9 21.7
2018-Apr-19 17:29 262 3 gusting 13 21.7
2018-Apr-19 17:20 246 3 gusting 8 22.2
2018-Apr-19 17:11 243 6 gusting 13 22.2
2018-Apr-19 17:02 245 4 gusting 12 22.2
2018-Apr-19 16:53 236 5 gusting 9 22.8
2018-Apr-19 16:44 178 2 gusting 8 23.3
2018-Apr-19 16:35 262 3 gusting 10 23.9
2018-Apr-19 16:26 267 6 gusting 8 23.9
2018-Apr-19 16:17 258 2 gusting 9 23.3
2018-Apr-19 16:08 237 5 gusting 10 24.4
2018-Apr-19 15:59 266 2 gusting 13 23.9
2018-Apr-19 15:50 263 3 gusting 13 23.9
2018-Apr-19 15:41 258 8 gusting 12 26.7
2018-Apr-19 15:32 133 1 gusting 5 26.7
2018-Apr-19 15:23 140 1 gusting 6 26.7
2018-Apr-19 15:14 142 3 gusting 5 27.8
2018-Apr-19 15:05 123 3 gusting 5 27.8
2018-Apr-19 14:56 270 1 gusting 13 27.8
2018-Apr-19 14:47 238 6 gusting 13 27.8
2018-Apr-19 14:38 211 1 gusting 10 27.2
2018-Apr-19 14:29 237 1 gusting 13 26.7
2018-Apr-19 14:20 275 2 gusting 15 26.1
2018-Apr-19 14:11 272 5 gusting 13 26.7
2018-Apr-19 14:02 295 5 gusting 13 27.2
2018-Apr-19 13:53 237 1 gusting 16 26.7
2018-Apr-19 13:44 146 1 gusting 7 27.8
2018-Apr-19 13:35 159 1 gusting 8 27.8
2018-Apr-19 13:26 089 4 gusting 9 27.8
2018-Apr-19 13:17 212 3 gusting 13 27.2
2018-Apr-19 13:08 223 3 gusting 13 26.7
2018-Apr-19 12:59 231 2 gusting 19 27.2
2018-Apr-19 12:50 258 6 gusting 18 26.7
2018-Apr-19 12:41 200 1 gusting 8 28.3
2018-Apr-19 12:32 204 2 gusting 9 27.8
2018-Apr-19 12:23 169 1 gusting 9 27.8
2018-Apr-19 12:14 181 1 gusting 9 28.3
2018-Apr-19 12:05 131 3 gusting 6 27.8
2018-Apr-19 11:56 174 1 gusting 6 27.2
2018-Apr-19 11:47 144 1 gusting 6 27.2
2018-Apr-19 11:38 122 4 gusting 6 27.2
2018-Apr-19 11:29 146 2 gusting 11 26.7
2018-Apr-19 11:20 178 3 gusting 7 26.7
2018-Apr-19 11:11 140 2 gusting 6 26.7
2018-Apr-19 11:02 104 3 gusting 6 26.7
2018-Apr-19 10:53 170 1 gusting 8 26.7
2018-Apr-19 10:44 131 3 gusting 8 26.7
2018-Apr-19 10:35 156 1 gusting 6 26.1
2018-Apr-19 10:26 204 3 gusting 6 26.1
2018-Apr-19 10:17 144 3 gusting 7 26.1
2018-Apr-19 10:08 222 2 gusting 6 26.1
2018-Apr-19 09:59 166 3 gusting 7 26.7
2018-Apr-19 09:50 126 3 gusting 7 26.1
2018-Apr-19 09:41 137 1 gusting 7 26.1
2018-Apr-19 09:32 137 3 gusting 6 26.1
2018-Apr-19 09:23 264 1 gusting 8 25.6
2018-Apr-19 09:14 255 3 gusting 9 25.0
2018-Apr-19 09:05 281 4 gusting 10 25.6
2018-Apr-19 08:56 064 1 gusting 6 25.6
2018-Apr-19 08:47 166 3 gusting 6 25.6
2018-Apr-19 08:38 163 1 gusting 6 25.0
2018-Apr-19 08:29 138 2 gusting 7 24.4
2018-Apr-19 08:20 141 3 gusting 8 24.4
2018-Apr-19 08:11 261 1 gusting 6 24.4
2018-Apr-19 08:02 217 3 gusting 9 23.9
2018-Apr-19 07:53 161 3 gusting 8 23.9
2018-Apr-19 07:44 182 3 gusting 12 23.9
2018-Apr-19 07:35 146 2 gusting 7 23.9
2018-Apr-19 07:26 131 3 gusting 9 23.9
2018-Apr-19 07:17 165 5 gusting 9 23.9
2018-Apr-19 07:08 213 1 gusting 5 24.4
2018-Apr-19 06:59 260 0 gusting 7 23.9
2018-Apr-19 06:50 247 1 gusting 5 24.4
2018-Apr-19 06:41 280 0 gusting 9 24.4
2018-Apr-19 06:32 250 5 gusting 9 23.9
2018-Apr-19 06:23 234 5 gusting 9 22.8
2018-Apr-19 06:14 007 23.3
2018-Apr-19 06:05 184 0 gusting 6 22.8
2018-Apr-19 05:56 221 2 gusting 6 22.8
2018-Apr-19 05:47 201 0 gusting 9 22.2
2018-Apr-19 05:38 219 0 gusting 9 22.8
2018-Apr-19 05:29 213 3 gusting 7 22.8
2018-Apr-19 05:20 178 0 gusting 9 22.2
2018-Apr-19 05:11 250 21.7
2018-Apr-19 05:02 210 21.1
2018-Apr-19 04:53 141 0 gusting 1 20.0
2018-Apr-19 04:44 230 19.4
2018-Apr-19 04:35 220 2 gusting 6 18.3
2018-Apr-19 04:26 239 4 gusting 6 18.3
2018-Apr-19 04:17 073 17.8
2018-Apr-19 04:08 195 17.8
2018-Apr-19 03:59 227 17.8
2018-Apr-19 03:50 286 17.8
2018-Apr-19 03:41 151 18.3
2018-Apr-19 03:32 077 18.3
2018-Apr-19 03:23 054 18.3
2018-Apr-19 03:14 042 1 gusting 1 18.3
2018-Apr-19 03:05 070 18.3
2018-Apr-19 02:56 024 18.9
2018-Apr-19 02:47 187 18.9
2018-Apr-19 02:38 269 19.4
2018-Apr-19 02:29 252 1 gusting 10 19.4
2018-Apr-19 02:20 250 3 gusting 9 18.9
2018-Apr-19 02:11 225 3 gusting 5 18.3
2018-Apr-19 02:02 133 18.3